Year,Month,Day,Hour,Minute,Value (Times are PST for temperature in C)
2011,02,22,03,06,-1.00
2011,02,22,03,07,-1.00
2011,02,22,03,08,-1.00
2011,02,22,03,09,-1.10
2011,02,22,03,10,-1.10
2011,02,22,03,11,-1.10
2011,02,22,03,12,-1.10
2011,02,22,03,13,-1.00
2011,02,22,03,14,-1.00
2011,02,22,03,15,-0.90
2011,02,22,03,16,-0.90
2011,02,22,03,17,-0.90
2011,02,22,03,18,-0.80
2011,02,22,03,19,-0.80
2011,02,22,03,20,-0.80
2011,02,22,03,21,-0.70
2011,02,22,03,22,-0.70
2011,02,22,03,23,-0.70
2011,02,22,03,24,-0.70
2011,02,22,03,25,-0.70
2011,02,22,03,26,-0.70
2011,02,22,03,27,-0.70
2011,02,22,03,28,-0.60
2011,02,22,03,29,-0.60
2011,02,22,03,30,-0.60
2011,02,22,03,31,-0.50
2011,02,22,03,32,-0.40
2011,02,22,03,33,-0.40
2011,02,22,03,34,-0.50
2011,02,22,03,35,-0.50
2011,02,22,03,36,-0.60
2011,02,22,03,37,-0.60
2011,02,22,03,38,-0.70
2011,02,22,03,39,-0.70
2011,02,22,03,40,-0.70
2011,02,22,03,41,-0.70
2011,02,22,03,42,-0.70
2011,02,22,03,43,-0.70
2011,02,22,03,44,-0.70
2011,02,22,03,45,-0.80
2011,02,22,03,46,-0.80
2011,02,22,03,47,-0.80
2011,02,22,03,48,-0.80
2011,02,22,03,49,-0.80
2011,02,22,03,50,-0.90
2011,02,22,03,51,-0.90
2011,02,22,03,52,-0.90
2011,02,22,03,53,-0.90
2011,02,22,03,54,-0.90
2011,02,22,03,55,-0.90
2011,02,22,03,56,-0.90
2011,02,22,03,57,-1.00
2011,02,22,03,58,-1.00
2011,02,22,03,59,-1.00
2011,02,22,04,00,-1.00
2011,02,22,04,01,-0.90
2011,02,22,04,02,-0.90
2011,02,22,04,03,-0.90
2011,02,22,04,04,-0.90
2011,02,22,04,05,-0.80
2011,02,22,04,06,-0.80
2011,02,22,04,07,-0.80
2011,02,22,04,08,-0.80
2011,02,22,04,09,-0.80
2011,02,22,04,10,-0.80
2011,02,22,04,11,-0.80
2011,02,22,04,12,-0.80
2011,02,22,04,13,-0.80
2011,02,22,04,14,-0.80
2011,02,22,04,15,-0.80
2011,02,22,04,16,-0.80
2011,02,22,04,17,-0.80
2011,02,22,04,18,-0.80
2011,02,22,04,19,-0.80
2011,02,22,04,20,-0.80
2011,02,22,04,21,-0.90
2011,02,22,04,22,-0.90
2011,02,22,04,23,-0.90
2011,02,22,04,24,-0.90
2011,02,22,04,25,-0.90
2011,02,22,04,26,-0.90
2011,02,22,04,27,-0.80
2011,02,22,04,28,-0.80
2011,02,22,04,29,-0.90
2011,02,22,04,30,-0.90
2011,02,22,04,31,-0.90
2011,02,22,04,32,-0.90
2011,02,22,04,33,-0.90
2011,02,22,04,34,-1.00
2011,02,22,04,35,-1.10
2011,02,22,04,36,-1.10
2011,02,22,04,37,-1.10
2011,02,22,04,38,-1.10
2011,02,22,04,39,-1.20
2011,02,22,04,40,-1.20
2011,02,22,04,41,-1.20
2011,02,22,04,42,-1.20
2011,02,22,04,43,-1.20
2011,02,22,04,44,-1.30
2011,02,22,04,45,-1.30
2011,02,22,04,46,-1.30
2011,02,22,04,47,-1.30
2011,02,22,04,48,-1.40
2011,02,22,04,49,-1.40
2011,02,22,04,50,-1.30
2011,02,22,04,51,-1.30
2011,02,22,04,52,-1.20
2011,02,22,04,53,-1.10
2011,02,22,04,54,-1.00
2011,02,22,04,55,-1.00
2011,02,22,04,56,-0.90
2011,02,22,04,57,-0.90
2011,02,22,04,58,-0.90
2011,02,22,04,59,-0.90
2011,02,22,05,00,-0.90
2011,02,22,05,01,-0.90
2011,02,22,05,02,-0.90
2011,02,22,05,03,-0.90
2011,02,22,05,04,-0.90
2011,02,22,05,05,-0.90
2011,02,22,05,06,-0.90
2011,02,22,05,07,-0.90
2011,02,22,05,08,-0.90
2011,02,22,05,09,-1.00
2011,02,22,05,10,-1.00
2011,02,22,05,11,-1.00
2011,02,22,05,12,-1.10
2011,02,22,05,13,-1.10
2011,02,22,05,14,-1.20
2011,02,22,05,15,-1.20
2011,02,22,05,16,-1.20
2011,02,22,05,17,-1.20
2011,02,22,05,18,-1.30
2011,02,22,05,19,-1.30
2011,02,22,05,20,-1.30
2011,02,22,05,21,-1.30
2011,02,22,05,22,-1.30
2011,02,22,05,23,-1.30
2011,02,22,05,24,-1.30
2011,02,22,05,25,-1.30
2011,02,22,05,26,-1.30
2011,02,22,05,27,-1.30
2011,02,22,05,28,-1.30
2011,02,22,05,29,-1.30
2011,02,22,05,30,-1.40
2011,02,22,05,31,-1.40
2011,02,22,05,32,-1.40
2011,02,22,05,33,-1.40
2011,02,22,05,34,-1.40
2011,02,22,05,35,-1.50
2011,02,22,05,36,-1.40
2011,02,22,05,37,-1.40
2011,02,22,05,38,-1.40
2011,02,22,05,39,-1.40
2011,02,22,05,40,-1.40
2011,02,22,05,41,-1.40
2011,02,22,05,42,-1.40
2011,02,22,05,43,-1.40
2011,02,22,05,44,-1.40
2011,02,22,05,45,-1.40
2011,02,22,05,46,-1.40
2011,02,22,05,47,-1.40
2011,02,22,05,48,-1.30
2011,02,22,05,49,-1.30
2011,02,22,05,50,-1.40
2011,02,22,05,51,-1.40
2011,02,22,05,52,-1.40
2011,02,22,05,53,-1.40
2011,02,22,05,54,-1.40
2011,02,22,05,55,-1.40
2011,02,22,05,56,-1.40
2011,02,22,05,57,-1.40
2011,02,22,05,58,-1.40
2011,02,22,05,59,-1.40
2011,02,22,06,00,-1.40
2011,02,22,06,01,-1.40
2011,02,22,06,02,-1.40
2011,02,22,06,03,-1.40
2011,02,22,06,04,-1.40
2011,02,22,06,05,-1.40
2011,02,22,06,06,-1.40
2011,02,22,06,07,-1.40
2011,02,22,06,08,-1.40
2011,02,22,06,09,-1.40
2011,02,22,06,10,-1.40
2011,02,22,06,11,-1.40
2011,02,22,06,12,-1.40
2011,02,22,06,13,-1.40
2011,02,22,06,14,-1.40
2011,02,22,06,15,-1.40
2011,02,22,06,16,-1.40
2011,02,22,06,17,-1.30
2011,02,22,06,18,-1.30
2011,02,22,06,19,-1.30
2011,02,22,06,20,-1.30
2011,02,22,06,21,-1.30
2011,02,22,06,22,-1.30
2011,02,22,06,23,-1.30
2011,02,22,06,24,-1.30
2011,02,22,06,25,-1.30
2011,02,22,06,26,-1.30
2011,02,22,06,27,-1.30
2011,02,22,06,28,-1.30
2011,02,22,06,29,-1.30
2011,02,22,06,30,-1.30
2011,02,22,06,31,-1.30
2011,02,22,06,32,-1.30
2011,02,22,06,33,-1.30
2011,02,22,06,34,-1.30
2011,02,22,06,35,-1.30
2011,02,22,06,36,-1.30
2011,02,22,06,37,-1.30
2011,02,22,06,38,-1.30
2011,02,22,06,39,-1.30
2011,02,22,06,40,-1.30
2011,02,22,06,41,-1.30
2011,02,22,06,42,-1.30
2011,02,22,06,43,-1.40
2011,02,22,06,44,-1.40
2011,02,22,06,45,-1.40
2011,02,22,06,46,-1.30
2011,02,22,06,47,-1.30
2011,02,22,06,48,-1.20
2011,02,22,06,49,-1.20
2011,02,22,06,50,-1.20
2011,02,22,06,51,-1.20
2011,02,22,06,52,-1.20
2011,02,22,06,53,-1.10
2011,02,22,06,54,-1.10
2011,02,22,06,55,-1.10
2011,02,22,06,56,-1.10
2011,02,22,06,57,-1.10
2011,02,22,06,58,-1.00
2011,02,22,06,59,-1.00
2011,02,22,07,00,-1.00
2011,02,22,07,01,-0.90
2011,02,22,07,02,-0.90
2011,02,22,07,03,-0.90
2011,02,22,07,04,-0.90
2011,02,22,07,05,-0.90
2011,02,22,07,06,-0.90
2011,02,22,07,07,-0.90
2011,02,22,07,08,-0.90
2011,02,22,07,09,-0.90
2011,02,22,07,10,-0.90
2011,02,22,07,11,-0.90
2011,02,22,07,12,-0.90
2011,02,22,07,13,-0.80
2011,02,22,07,14,-0.80
2011,02,22,07,15,-0.90
2011,02,22,07,16,-0.90
2011,02,22,07,17,-0.90
2011,02,22,07,18,-1.00
2011,02,22,07,19,-1.00
2011,02,22,07,20,-1.00
2011,02,22,07,21,-1.10
2011,02,22,07,22,-1.10
2011,02,22,07,23,-1.10
2011,02,22,07,24,-1.10
2011,02,22,07,25,-1.10
2011,02,22,07,26,-1.10
2011,02,22,07,27,-1.10
2011,02,22,07,28,-1.20
2011,02,22,07,29,-1.20
2011,02,22,07,30,-1.20
2011,02,22,07,31,-1.20
2011,02,22,07,32,-1.20
2011,02,22,07,33,-1.20
2011,02,22,07,34,-1.20
2011,02,22,07,35,-1.20
2011,02,22,07,36,-1.20
2011,02,22,07,37,-1.20
2011,02,22,07,38,-1.20
2011,02,22,07,39,-1.20
2011,02,22,07,40,-1.20
2011,02,22,07,41,-1.20
2011,02,22,07,42,-1.20
2011,02,22,07,43,-1.20
2011,02,22,07,44,-1.20
2011,02,22,07,45,-1.20
2011,02,22,07,46,-1.20
2011,02,22,07,47,-1.20
2011,02,22,07,48,-1.20
2011,02,22,07,49,-1.20
2011,02,22,07,50,-1.20
2011,02,22,07,51,-1.20
2011,02,22,07,52,-1.20
2011,02,22,07,53,-1.30
2011,02,22,07,54,-1.40
2011,02,22,07,55,-1.40
2011,02,22,07,56,-1.40
2011,02,22,07,57,-1.30
2011,02,22,07,58,-1.30
2011,02,22,07,59,-1.20
2011,02,22,08,00,-1.10
2011,02,22,08,01,-1.00
2011,02,22,08,02,-1.00
2011,02,22,08,03,-0.90
2011,02,22,08,04,-0.80
2011,02,22,08,05,-0.70
2011,02,22,08,06,-0.70
2011,02,22,08,07,-0.60
2011,02,22,08,08,-0.50
2011,02,22,08,09,-0.40
2011,02,22,08,10,-0.30
2011,02,22,08,11,-0.20
2011,02,22,08,12,-0.10
2011,02,22,08,13,0.00
2011,02,22,08,14,0.10
2011,02,22,08,15,0.20
2011,02,22,08,16,0.30
2011,02,22,08,17,0.40
2011,02,22,08,18,0.50
2011,02,22,08,19,0.50
2011,02,22,08,20,0.60
2011,02,22,08,21,0.60
2011,02,22,08,22,0.60
2011,02,22,08,23,0.70
2011,02,22,08,24,0.70
2011,02,22,08,25,0.70
2011,02,22,08,26,0.80
2011,02,22,08,27,0.80
2011,02,22,08,28,0.90
2011,02,22,08,29,1.00
2011,02,22,08,30,1.10
2011,02,22,08,31,1.20
2011,02,22,08,32,1.30
2011,02,22,08,33,1.30
2011,02,22,08,34,1.40
2011,02,22,08,35,1.50
2011,02,22,08,36,1.70
2011,02,22,08,37,1.70
2011,02,22,08,38,1.80
2011,02,22,08,39,1.90
2011,02,22,08,40,2.00
2011,02,22,08,41,2.00
2011,02,22,08,42,2.10
2011,02,22,08,43,2.10
2011,02,22,08,44,2.10
2011,02,22,08,45,2.10
2011,02,22,08,46,2.10
2011,02,22,08,47,2.10
2011,02,22,08,48,2.10
2011,02,22,08,49,2.10
2011,02,22,08,50,2.10
2011,02,22,08,51,2.10
2011,02,22,08,52,2.10
2011,02,22,08,53,2.10
2011,02,22,08,54,2.10
2011,02,22,08,55,2.10
2011,02,22,08,56,2.00
2011,02,22,08,57,2.00
2011,02,22,08,58,2.00
2011,02,22,08,59,2.10
2011,02,22,09,00,2.10
2011,02,22,09,01,2.10
2011,02,22,09,02,2.10
2011,02,22,09,03,2.10
2011,02,22,09,04,2.10
2011,02,22,09,05,2.10
2011,02,22,09,06,2.00
2011,02,22,09,07,2.00
2011,02,22,09,08,2.10
2011,02,22,09,09,2.10
2011,02,22,09,10,2.10
2011,02,22,09,11,2.10
2011,02,22,09,12,2.10
2011,02,22,09,13,2.10
2011,02,22,09,14,2.10
2011,02,22,09,15,2.10
2011,02,22,09,16,2.10
2011,02,22,09,17,2.20
2011,02,22,09,18,2.20
2011,02,22,09,19,2.20
2011,02,22,09,20,2.30
2011,02,22,09,21,2.30
2011,02,22,09,22,2.40
2011,02,22,09,23,2.40
2011,02,22,09,24,2.50
2011,02,22,09,25,2.50
2011,02,22,09,26,2.60
2011,02,22,09,27,2.60
2011,02,22,09,28,2.60
2011,02,22,09,29,2.70
2011,02,22,09,30,2.70
2011,02,22,09,31,2.70
2011,02,22,09,32,2.70
2011,02,22,09,33,2.70
2011,02,22,09,34,2.80
2011,02,22,09,35,2.90
2011,02,22,09,36,3.00
2011,02,22,09,37,3.10
2011,02,22,09,38,3.20
2011,02,22,09,39,3.40
2011,02,22,09,40,3.60
2011,02,22,09,41,3.70
2011,02,22,09,42,3.90
2011,02,22,09,43,4.10
2011,02,22,09,44,4.20
2011,02,22,09,45,4.30
2011,02,22,09,46,4.50
2011,02,22,09,47,4.60
2011,02,22,09,48,4.70
2011,02,22,09,49,4.70
2011,02,22,09,50,4.90
2011,02,22,09,51,5.00
2011,02,22,09,52,5.10
2011,02,22,09,53,5.30
2011,02,22,09,54,5.40
2011,02,22,09,55,5.50
2011,02,22,09,56,5.60
2011,02,22,09,57,5.60
2011,02,22,09,58,5.60
2011,02,22,09,59,5.50
2011,02,22,10,00,5.40
2011,02,22,10,01,5.40
2011,02,22,10,02,5.30
2011,02,22,10,03,5.30
2011,02,22,10,04,5.30
2011,02,22,10,05,5.20
2011,02,22,10,06,5.10
2011,02,22,10,07,5.10
2011,02,22,10,08,5.10
2011,02,22,10,09,5.10
2011,02,22,10,10,5.00
2011,02,22,10,11,5.00
2011,02,22,10,12,5.00
2011,02,22,10,13,5.00
2011,02,22,10,14,5.00
2011,02,22,10,15,4.90
2011,02,22,10,16,4.80
2011,02,22,10,17,4.80
2011,02,22,10,18,4.70
2011,02,22,10,19,4.60
2011,02,22,10,20,4.60
2011,02,22,10,21,4.60
2011,02,22,10,22,4.50
2011,02,22,10,23,4.50
2011,02,22,10,24,4.40
2011,02,22,10,25,4.40
2011,02,22,10,26,4.30
2011,02,22,10,27,4.30
2011,02,22,10,28,4.30
2011,02,22,10,29,4.20
2011,02,22,10,30,4.20
2011,02,22,10,31,4.10
2011,02,22,10,32,4.10
2011,02,22,10,33,4.10
2011,02,22,10,34,4.10
2011,02,22,10,35,4.10
2011,02,22,10,36,4.10
2011,02,22,10,37,4.10
2011,02,22,10,38,4.10
2011,02,22,10,39,4.20
2011,02,22,10,40,4.20
2011,02,22,10,41,4.20
2011,02,22,10,42,4.30
2011,02,22,10,43,4.30
2011,02,22,10,44,4.30
2011,02,22,10,45,4.40
2011,02,22,10,46,4.40
2011,02,22,10,47,4.40
2011,02,22,10,48,4.40
2011,02,22,10,49,4.40
2011,02,22,10,50,4.40
2011,02,22,10,51,4.50
2011,02,22,10,52,4.60
2011,02,22,10,53,4.70
2011,02,22,10,54,4.70
2011,02,22,10,55,4.70
2011,02,22,10,56,4.70
2011,02,22,10,57,4.70
2011,02,22,10,58,4.70
2011,02,22,10,59,4.80
2011,02,22,11,00,4.80
2011,02,22,11,01,4.70
2011,02,22,11,02,4.70
2011,02,22,11,03,4.80
2011,02,22,11,04,4.80
2011,02,22,11,05,4.70
2011,02,22,11,06,4.70
2011,02,22,11,07,4.70
2011,02,22,11,08,4.80
2011,02,22,11,09,4.80
2011,02,22,11,10,4.90
2011,02,22,11,11,4.90
2011,02,22,11,12,4.90
2011,02,22,11,13,4.90
2011,02,22,11,14,4.90
2011,02,22,11,15,4.90
2011,02,22,11,16,4.90
2011,02,22,11,17,4.80
2011,02,22,11,18,4.90
2011,02,22,11,19,4.90
2011,02,22,11,20,5.00
2011,02,22,11,21,5.00
2011,02,22,11,22,5.10
2011,02,22,11,23,5.20
2011,02,22,11,24,5.20
2011,02,22,11,25,5.30
2011,02,22,11,26,5.30
2011,02,22,11,27,5.40
2011,02,22,11,28,5.30
2011,02,22,11,29,5.30
2011,02,22,11,30,5.40
2011,02,22,11,31,5.40
2011,02,22,11,32,5.40
2011,02,22,11,33,5.50
2011,02,22,11,34,5.40
2011,02,22,11,35,5.30
2011,02,22,11,36,5.30
2011,02,22,11,37,5.20
2011,02,22,11,38,5.10
2011,02,22,11,39,5.10
2011,02,22,11,40,5.10
2011,02,22,11,41,5.00
2011,02,22,11,42,5.00
2011,02,22,11,43,5.00
2011,02,22,11,44,4.90
2011,02,22,11,45,4.90
2011,02,22,11,46,4.80
2011,02,22,11,47,4.80
2011,02,22,11,48,4.80
2011,02,22,11,49,4.90
2011,02,22,11,50,4.90
2011,02,22,11,51,4.90
2011,02,22,11,52,4.90
2011,02,22,11,53,4.90
2011,02,22,11,54,4.90
2011,02,22,11,55,5.00
2011,02,22,11,56,5.10
2011,02,22,11,57,5.20
2011,02,22,11,58,5.30
2011,02,22,11,59,5.30
2011,02,22,12,00,5.40
2011,02,22,12,01,5.40
2011,02,22,12,02,5.50
2011,02,22,12,03,5.50
2011,02,22,12,04,5.50
2011,02,22,12,05,5.60
2011,02,22,12,06,5.50
2011,02,22,12,07,5.50
2011,02,22,12,08,5.50
2011,02,22,12,09,5.50
2011,02,22,12,10,5.50
2011,02,22,12,11,5.40
2011,02,22,12,12,5.40
2011,02,22,12,13,5.40
2011,02,22,12,14,5.40
2011,02,22,12,15,5.40
2011,02,22,12,16,5.40
2011,02,22,12,17,5.30
2011,02,22,12,18,5.30
2011,02,22,12,19,5.20
2011,02,22,12,20,5.20
2011,02,22,12,21,5.10
2011,02,22,12,22,5.10
2011,02,22,12,23,5.00
2011,02,22,12,24,5.00
2011,02,22,12,25,4.90
2011,02,22,12,26,4.90
2011,02,22,12,27,4.90
2011,02,22,12,28,4.90
2011,02,22,12,29,4.90
2011,02,22,12,30,4.90
2011,02,22,12,31,4.90
2011,02,22,12,32,4.90
2011,02,22,12,33,4.90
2011,02,22,12,34,4.80
2011,02,22,12,35,4.80
2011,02,22,12,36,4.80
2011,02,22,12,37,4.80
2011,02,22,12,38,4.90
2011,02,22,12,39,4.90
2011,02,22,12,40,5.00
2011,02,22,12,41,5.00
2011,02,22,12,42,5.10
2011,02,22,12,43,5.10
2011,02,22,12,44,5.20
2011,02,22,12,45,5.20
2011,02,22,12,46,5.30
2011,02,22,12,47,5.30
2011,02,22,12,48,5.40
2011,02,22,12,49,5.40
2011,02,22,12,50,5.40
2011,02,22,12,51,5.40
2011,02,22,12,52,5.50
2011,02,22,12,53,5.50
2011,02,22,12,54,5.40
2011,02,22,12,55,5.30
2011,02,22,12,56,5.30
2011,02,22,12,57,5.30
2011,02,22,12,58,5.30
2011,02,22,12,59,5.40
2011,02,22,13,00,5.40
2011,02,22,13,01,5.40
2011,02,22,13,02,5.40
2011,02,22,13,03,5.30
2011,02,22,13,04,5.30
2011,02,22,13,05,5.30
2011,02,22,13,06,5.30
2011,02,22,13,07,5.30
2011,02,22,13,08,5.30
2011,02,22,13,09,5.30
2011,02,22,13,10,5.30
2011,02,22,13,11,5.30
2011,02,22,13,12,5.40
2011,02,22,13,13,5.40
2011,02,22,13,14,5.40
2011,02,22,13,15,5.50
2011,02,22,13,16,5.50
2011,02,22,13,17,5.50
2011,02,22,13,18,5.60
2011,02,22,13,19,5.60
2011,02,22,13,20,5.60
2011,02,22,13,21,5.60
2011,02,22,13,22,5.60
2011,02,22,13,23,5.60
2011,02,22,13,24,5.60
2011,02,22,13,25,5.70
2011,02,22,13,26,5.60
2011,02,22,13,27,5.50
2011,02,22,13,28,5.50
2011,02,22,13,29,5.50
2011,02,22,13,30,5.60
2011,02,22,13,31,5.60
2011,02,22,13,32,5.60
2011,02,22,13,33,5.60
2011,02,22,13,34,5.60
2011,02,22,13,35,5.70
2011,02,22,13,36,5.70
2011,02,22,13,37,5.70
2011,02,22,13,38,5.80
2011,02,22,13,39,5.70
2011,02,22,13,40,5.60
2011,02,22,13,41,5.50
2011,02,22,13,42,5.40
2011,02,22,13,43,5.40
2011,02,22,13,44,5.30
2011,02,22,13,45,5.30
2011,02,22,13,46,5.20
2011,02,22,13,47,5.20
2011,02,22,13,48,5.20
2011,02,22,13,49,5.20
2011,02,22,13,50,5.20
2011,02,22,13,51,5.20
2011,02,22,13,52,5.20
2011,02,22,13,53,5.20
2011,02,22,13,54,5.20
2011,02,22,13,55,5.20
2011,02,22,13,56,5.10
2011,02,22,13,57,5.10
2011,02,22,13,58,5.20
2011,02,22,13,59,5.20
2011,02,22,14,00,5.20
2011,02,22,14,01,5.20
2011,02,22,14,02,5.20
2011,02,22,14,03,5.20
2011,02,22,14,04,5.20
2011,02,22,14,05,5.20
2011,02,22,14,06,5.20
2011,02,22,14,07,5.10
2011,02,22,14,08,5.10
2011,02,22,14,09,5.10
2011,02,22,14,10,5.20
2011,02,22,14,11,5.20
2011,02,22,14,12,5.30
2011,02,22,14,13,5.30
2011,02,22,14,14,5.30
2011,02,22,14,15,5.30
2011,02,22,14,16,5.40
2011,02,22,14,17,5.40
2011,02,22,14,18,5.50
2011,02,22,14,19,5.60
2011,02,22,14,20,5.60
2011,02,22,14,21,5.70
2011,02,22,14,22,5.80
2011,02,22,14,23,5.80
2011,02,22,14,24,5.90
2011,02,22,14,25,5.90
2011,02,22,14,26,6.00
2011,02,22,14,27,6.00
2011,02,22,14,28,6.10
2011,02,22,14,29,6.10
2011,02,22,14,30,6.10
2011,02,22,14,31,6.00
2011,02,22,14,32,6.00
2011,02,22,14,33,5.90
2011,02,22,14,34,5.90
2011,02,22,14,35,5.90
2011,02,22,14,36,5.80
2011,02,22,14,37,5.60
2011,02,22,14,38,5.50
2011,02,22,14,39,5.30
2011,02,22,14,40,5.20
2011,02,22,14,41,5.10
2011,02,22,14,42,5.10
2011,02,22,14,43,5.10
2011,02,22,14,44,5.10
2011,02,22,14,45,5.10
2011,02,22,14,46,5.00
2011,02,22,14,47,5.00
2011,02,22,14,48,4.90
2011,02,22,14,49,4.90
2011,02,22,14,50,4.90
2011,02,22,14,51,4.80
2011,02,22,14,52,4.80
2011,02,22,14,53,4.80
2011,02,22,14,54,4.70
2011,02,22,14,55,4.70
2011,02,22,14,56,4.70
2011,02,22,14,57,4.60
2011,02,22,14,58,4.60
2011,02,22,14,59,4.60
2011,02,22,15,00,4.60
2011,02,22,15,01,4.60
2011,02,22,15,02,4.50
2011,02,22,15,03,4.50
2011,02,22,15,04,4.50
2011,02,22,15,05,4.50
2011,02,22,15,06,4.50
2011,02,22,15,07,4.50
2011,02,22,15,08,4.50
2011,02,22,15,09,4.50
2011,02,22,15,10,4.40
2011,02,22,15,11,4.40
2011,02,22,15,12,4.40
2011,02,22,15,13,4.30
2011,02,22,15,14,4.30
2011,02,22,15,15,4.30
2011,02,22,15,16,4.30
2011,02,22,15,17,4.20
2011,02,22,15,18,4.20
2011,02,22,15,19,4.20
2011,02,22,15,20,4.20
2011,02,22,15,21,4.20
2011,02,22,15,22,4.20
2011,02,22,15,23,4.20
2011,02,22,15,24,4.20
2011,02,22,15,25,4.20
2011,02,22,15,26,4.20
2011,02,22,15,27,4.20
2011,02,22,15,28,4.20
2011,02,22,15,29,4.20
2011,02,22,15,30,4.20
2011,02,22,15,31,4.20
2011,02,22,15,32,4.20
2011,02,22,15,33,4.20
2011,02,22,15,34,4.20
2011,02,22,15,35,4.20
2011,02,22,15,36,4.10
2011,02,22,15,37,4.10
2011,02,22,15,38,4.10
2011,02,22,15,39,4.10
2011,02,22,15,40,4.00
2011,02,22,15,41,4.00
2011,02,22,15,42,3.90
2011,02,22,15,43,3.90
2011,02,22,15,44,3.90
2011,02,22,15,45,3.90
2011,02,22,15,46,3.90
2011,02,22,15,47,3.80
2011,02,22,15,48,3.90
2011,02,22,15,49,3.90
2011,02,22,15,50,3.90
2011,02,22,15,51,3.90
2011,02,22,15,52,3.90
2011,02,22,15,53,3.90
2011,02,22,15,54,3.90
2011,02,22,15,55,3.90
2011,02,22,15,56,3.90
2011,02,22,15,57,3.90
2011,02,22,15,58,3.90
2011,02,22,15,59,3.90
2011,02,22,16,00,3.90
2011,02,22,16,01,3.90
2011,02,22,16,02,3.90
2011,02,22,16,03,3.90
2011,02,22,16,04,3.80
2011,02,22,16,05,3.80
2011,02,22,16,06,3.80
2011,02,22,16,07,3.80
2011,02,22,16,08,3.80
2011,02,22,16,09,3.80
2011,02,22,16,10,3.80
2011,02,22,16,11,3.80
2011,02,22,16,12,3.80
2011,02,22,16,13,3.80
2011,02,22,16,14,3.80
2011,02,22,16,15,3.70
2011,02,22,16,16,3.70
2011,02,22,16,17,3.70
2011,02,22,16,18,3.70
2011,02,22,16,19,3.70
2011,02,22,16,20,3.60
2011,02,22,16,21,3.60
2011,02,22,16,22,3.60
2011,02,22,16,23,3.60
2011,02,22,16,24,3.50
2011,02,22,16,25,3.50
2011,02,22,16,26,3.40
2011,02,22,16,27,3.40
2011,02,22,16,28,3.30
2011,02,22,16,29,3.30
2011,02,22,16,30,3.30
2011,02,22,16,31,3.20
2011,02,22,16,32,3.20
2011,02,22,16,33,3.10
2011,02,22,16,34,3.10
2011,02,22,16,35,3.00
2011,02,22,16,36,3.00
2011,02,22,16,37,2.90
2011,02,22,16,38,2.90
2011,02,22,16,39,2.80
2011,02,22,16,40,2.80
2011,02,22,16,41,2.70
2011,02,22,16,42,2.70
2011,02,22,16,43,2.60
2011,02,22,16,44,2.60
2011,02,22,16,45,2.60
2011,02,22,16,46,2.60
2011,02,22,16,47,2.60
2011,02,22,16,48,2.60
2011,02,22,16,49,2.50
2011,02,22,16,50,2.50
2011,02,22,16,51,2.50
2011,02,22,16,52,2.50
2011,02,22,16,53,2.50
2011,02,22,16,54,2.50
2011,02,22,16,55,2.50
2011,02,22,16,56,2.50
2011,02,22,16,57,2.50
2011,02,22,16,58,2.50
2011,02,22,16,59,2.50
2011,02,22,17,00,2.50
2011,02,22,17,01,2.50
2011,02,22,17,02,2.50
2011,02,22,17,03,2.50
2011,02,22,17,04,2.50
2011,02,22,17,05,2.50
2011,02,22,17,06,2.50
2011,02,22,17,07,2.40
2011,02,22,17,08,2.40
2011,02,22,17,09,2.40
2011,02,22,17,10,2.40
2011,02,22,17,11,2.40
2011,02,22,17,12,2.40
2011,02,22,17,13,2.40
2011,02,22,17,14,2.50
2011,02,22,17,15,2.50
2011,02,22,17,16,2.50
2011,02,22,17,17,2.50
2011,02,22,17,18,2.50
2011,02,22,17,19,2.50
2011,02,22,17,20,2.60
2011,02,22,17,21,2.60
2011,02,22,17,22,2.60
2011,02,22,17,23,2.60
2011,02,22,17,24,2.60
2011,02,22,17,25,2.60
2011,02,22,17,26,2.60
2011,02,22,17,27,2.60
2011,02,22,17,28,2.60
2011,02,22,17,29,2.60
2011,02,22,17,30,2.70
2011,02,22,17,31,2.70
2011,02,22,17,32,2.70
2011,02,22,17,33,2.70
2011,02,22,17,34,2.70
2011,02,22,17,35,2.70
2011,02,22,17,36,2.70
2011,02,22,17,37,2.70
2011,02,22,17,38,2.70
2011,02,22,17,39,2.70
2011,02,22,17,40,2.70
2011,02,22,17,41,2.70
2011,02,22,17,42,2.70
2011,02,22,17,43,2.70
2011,02,22,17,44,2.70
2011,02,22,17,45,2.70
2011,02,22,17,46,2.70
2011,02,22,17,47,2.70
2011,02,22,17,48,2.70
2011,02,22,17,49,2.70
2011,02,22,17,50,2.70
2011,02,22,17,51,2.70
2011,02,22,17,52,2.70
2011,02,22,17,53,2.70
2011,02,22,17,54,2.70
2011,02,22,17,55,2.60
2011,02,22,17,56,2.60
2011,02,22,17,57,2.60
2011,02,22,17,58,2.60
2011,02,22,17,59,2.60
2011,02,22,18,00,2.50
2011,02,22,18,01,2.50
2011,02,22,18,02,2.50
2011,02,22,18,03,2.40
2011,02,22,18,04,2.40
2011,02,22,18,05,2.30
2011,02,22,18,06,2.30
2011,02,22,18,07,2.30
2011,02,22,18,08,2.20
2011,02,22,18,09,2.10
2011,02,22,18,10,2.10
2011,02,22,18,11,2.00
2011,02,22,18,12,2.00
2011,02,22,18,13,1.90
2011,02,22,18,14,1.80
2011,02,22,18,15,1.80
2011,02,22,18,16,1.80
2011,02,22,18,17,1.70
2011,02,22,18,18,1.70
2011,02,22,18,19,1.70
2011,02,22,18,20,1.70
2011,02,22,18,21,1.70
2011,02,22,18,22,1.70
2011,02,22,18,23,1.70
2011,02,22,18,24,1.70
2011,02,22,18,25,1.70
2011,02,22,18,26,1.70
2011,02,22,18,27,1.70
2011,02,22,18,28,1.70
2011,02,22,18,29,1.70
2011,02,22,18,30,1.70
2011,02,22,18,31,1.70
2011,02,22,18,32,1.70
2011,02,22,18,33,1.70
2011,02,22,18,34,1.70
2011,02,22,18,35,1.70
2011,02,22,18,36,1.70
2011,02,22,18,37,1.70
2011,02,22,18,38,1.70
2011,02,22,18,39,1.70
2011,02,22,18,40,1.70
2011,02,22,18,41,1.70
2011,02,22,18,42,1.70
2011,02,22,18,43,1.70
2011,02,22,18,44,1.70
2011,02,22,18,45,1.70
2011,02,22,18,46,1.80
2011,02,22,18,47,1.80
2011,02,22,18,48,1.80
2011,02,22,18,49,1.80
2011,02,22,18,50,1.80
2011,02,22,18,51,1.70
2011,02,22,18,52,1.70
2011,02,22,18,53,1.70
2011,02,22,18,54,1.60
2011,02,22,18,55,1.60
2011,02,22,18,56,1.50
2011,02,22,18,57,1.50
2011,02,22,18,58,1.40
2011,02,22,18,59,1.30
2011,02,22,19,00,1.30
2011,02,22,19,01,1.30
2011,02,22,19,02,1.30
2011,02,22,19,03,1.20
2011,02,22,19,04,1.10
2011,02,22,19,05,1.10
2011,02,22,19,06,1.00
2011,02,22,19,07,0.90
2011,02,22,19,08,0.90
2011,02,22,19,09,0.90
2011,02,22,19,10,0.90
2011,02,22,19,11,0.90
2011,02,22,19,12,0.80
2011,02,22,19,13,0.80
2011,02,22,19,14,0.80
2011,02,22,19,15,0.80
2011,02,22,19,16,0.80
2011,02,22,19,17,0.70
2011,02,22,19,18,0.70
2011,02,22,19,19,0.70
2011,02,22,19,20,0.70
2011,02,22,19,21,0.70
2011,02,22,19,22,0.70
2011,02,22,19,23,0.60
2011,02,22,19,24,0.60
2011,02,22,19,25,0.60
2011,02,22,19,26,0.60
2011,02,22,19,27,0.60
2011,02,22,19,28,0.60
2011,02,22,19,29,0.50
2011,02,22,19,30,0.50
2011,02,22,19,31,0.50
2011,02,22,19,32,0.50
2011,02,22,19,33,0.40
2011,02,22,19,34,0.40
2011,02,22,19,35,0.40
2011,02,22,19,36,0.40
2011,02,22,19,37,0.40
2011,02,22,19,38,0.40
2011,02,22,19,39,0.40
2011,02,22,19,40,0.30
2011,02,22,19,41,0.30
2011,02,22,19,42,0.30
2011,02,22,19,43,0.30
2011,02,22,19,44,0.30
2011,02,22,19,45,0.30
2011,02,22,19,46,0.30
2011,02,22,19,47,0.30
2011,02,22,19,48,0.30
2011,02,22,19,49,0.30
2011,02,22,19,50,0.30
2011,02,22,19,51,0.30
2011,02,22,19,52,0.40
2011,02,22,19,53,0.40
2011,02,22,19,54,0.40
2011,02,22,19,55,0.40
2011,02,22,19,56,0.40
2011,02,22,19,57,0.40
2011,02,22,19,58,0.40
2011,02,22,19,59,0.40
2011,02,22,20,00,0.40
2011,02,22,20,01,0.40
2011,02,22,20,02,0.40
2011,02,22,20,03,0.40
2011,02,22,20,04,0.40
2011,02,22,20,05,0.40
2011,02,22,20,06,0.40
2011,02,22,20,07,0.40
2011,02,22,20,08,0.40
2011,02,22,20,09,0.40
2011,02,22,20,10,0.40
2011,02,22,20,11,0.40
2011,02,22,20,12,0.40
2011,02,22,20,13,0.30
2011,02,22,20,14,0.40
2011,02,22,20,15,0.30
2011,02,22,20,16,0.30
2011,02,22,20,17,0.30
2011,02,22,20,18,0.30
2011,02,22,20,19,0.30
2011,02,22,20,20,0.30
2011,02,22,20,21,0.30
2011,02,22,20,22,0.30
2011,02,22,20,23,0.30
2011,02,22,20,24,0.30
2011,02,22,20,25,0.30
2011,02,22,20,26,0.30
2011,02,22,20,27,0.30
2011,02,22,20,28,0.30
2011,02,22,20,29,0.30
2011,02,22,20,30,0.30
2011,02,22,20,31,0.30
2011,02,22,20,32,0.30
2011,02,22,20,33,0.30
2011,02,22,20,34,0.30
2011,02,22,20,35,0.30
2011,02,22,20,36,0.30
2011,02,22,20,37,0.30
2011,02,22,20,38,0.30
2011,02,22,20,39,0.30
2011,02,22,20,40,0.30
2011,02,22,20,41,0.30
2011,02,22,20,42,0.30
2011,02,22,20,43,0.30
2011,02,22,20,44,0.30
2011,02,22,20,45,0.30
2011,02,22,20,46,0.30
2011,02,22,20,47,0.20
2011,02,22,20,48,0.20
2011,02,22,20,49,0.20
2011,02,22,20,50,0.20
2011,02,22,20,51,0.20
2011,02,22,20,52,0.20
2011,02,22,20,53,0.20
2011,02,22,20,54,0.20
2011,02,22,20,55,0.20
2011,02,22,20,56,0.20
2011,02,22,20,57,0.20
2011,02,22,20,58,0.10